Wind_Speed
23 22 20 21 20 21 22 22 23 22 23 23 26 26 25 25 25 25 23 23 24 24 24 24 24 24 23 24 24 25 25 25 25 26 26 26 27 26 25 25 25 25 25 25
25 22 22 22 21 21 21 21 23 24 25 26 28 30 29 29 27 26 24 24 24 24 24 24 25 25 25 25 26 26 26 26 26 26 26 27 27 27 27 27 27 26 25 26
24 22 22 23 22 22 23 24 25 28 29 28 28 30 31 29 28 28 27 26 25 25 25 25 26 26 26 26 26 27 26 26 27 27 26 27 27 27 28 28 27 25 25 26
25 23 24 23 23 25 27 27 28 29 30 29 30 31 31 30 29 29 28 27 27 27 27 26 27 27 27 27 27 27 28 28 28 27 27 28 28 27 27 27 27 27 27 27
26 25 24 23 24 25 27 29 30 30 30 30 31 32 33 31 30 29 29 29 29 29 28 28 28 28 28 28 28 29 29 29 29 28 29 29 28 28 28 28 28 28 28 28
27 27 26 28 28 28 28 30 31 32 31 30 31 32 32 31 32 31 30 30 30 30 30 30 30 30 30 30 30 31 31 31 30 29 29 29 29 29 29 29 28 29 29 29
28 28 29 30 30 29 30 31 30 31 32 32 33 33 33 32 32 32 31 31 31 32 32 31 31 31 31 31 32 32 32 32 31 31 30 30 30 30 30 30 30 30 29 30
30 30 33 31 31 31 32 32 31 31 32 33 34 34 33 33 33 33 32 32 32 32 32 32 32 32 32 33 33 33 32 32 32 32 32 31 32 32 32 31 31 31 30 29
31 32 32 33 33 33 33 34 33 33 33 33 34 34 34 33 33 33 33 32 32 33 33 33 33 33 34 34 34 34 34 34 33 33 33 33 33 33 33 32 32 31 30 29
32 33 35 35 34 34 34 34 34 34 34 34 34 34 33 33 33 33 33 33 33 33 33 33 34 34 33 34 35 35 35 35 34 34 34 33 33 33 33 32 32 31 31 31
34 33 33 35 35 34 34 34 34 33 32 33 34 33 33 33 33 33 33 33 33 33 33 34 35 35 35 35 36 36 35 35 36 35 34 33 34 34 34 33 33 33 32 31
32 32 33 33 35 35 35 34 34 33 33 34 34 34 34 34 33 32 33 34 34 34 35 35 35 35 36 36 36 35 35 35 36 35 34 34 34 35 35 34 34 33 33 33
32 32 32 33 35 36 35 35 34 34 34 34 33 34 34 34 33 33 33 34 34 34 35 35 36 36 36 36 36 35 35 35 35 35 35 34 34 35 35 34 33 33 33 32
32 32 33 33 33 34 35 35 35 35 35 35 35 35 34 34 34 33 33 33 33 34 35 36 35 35 35 34 35 35 35 34 34 35 35 35 34 35 35 34 34 34 33 33
31 31 32 32 32 33 34 34 34 35 36 36 35 34 34 34 34 34 34 34 34 34 35 35 35 35 34 34 34 34 34 34 34 35 35 35 35 35 35 35 34 34 34 33
30 31 32 32 32 33 33 33 33 33 34 34 34 34 34 34 35 35 35 35 35 35 35 35 35 35 35 34 34 34 34 34 35 35 36 36 36 37 36 36 35 34 33 33
29 30 31 31 31 31 31 31 31 31 32 33 33 33 33 34 34 35 35 36 36 35 35 34 35 35 35 35 35 35 35 35 35 36 36 36 36 36 35 35 34 33 32 32
28 29 29 29 30 30 30 30 30 31 31 32 32 32 32 33 34 33 33 34 34 35 35 35 35 35 36 35 35 35 35 36 36 36 35 35 35 35 35 34 33 33 33 32
27 28 28 28 29 29 29 30 30 30 30 31 32 32 32 32 32 32 32 33 33 34 34 34 35 35 35 35 35 35 35 35 35 34 34 34 34 34 34 34 34 34 34 33
26 26 27 27 28 28 29 29 29 29 30 30 31 31 32 33 33 33 33 33 33 34 34 34 34 34 34 34 35 35 35 35 35 34 34 34 34 34 34 34 34 34 33 32
25 25 26 26 27 27 28 28 28 29 29 29 30 31 31 32 33 33 33 33 33 34 33 33 33 33 34 34 34 34 34 34 34 34 33 34 34 34 34 33 33 33 33 33
24 24 25 26 26 26 27 28 28 28 28 29 29 29 30 31 32 33 33 33 33 33 33 33 33 33 33 33 33 33 34 34 34 33 33 33 33 33 33 33 32 32 32 32
23 24 24 25 25 26 26 27 28 28 29 29 29 29 30 31 31 32 32 32 31 31 32 32 32 32 32 32 33 33 33 33 33 32 32 32 32 32 32 31 31 31 30 31
23 23 23 24 25 26 27 27 28 28 29 29 29 29 30 30 30 31 31 31 30 31 31 31 31 31 32 32 32 32 32 32 32 31 31 32 32 32 32 31 31 31 31 31
22 22 22 23 24 25 25 26 27 27 28 28 29 29 30 30 30 30 30 30 31 30 30 31 31 31 31 32 31 31 31 32 32 31 31 31 31 31 30 30 30 30 30 29
22 22 22 22 23 24 24 25 25 26 26 27 28 29 29 29 29 29 29 29 30 30 30 30 31 31 32 32 32 31 31 31 31 31 31 31 30 30 29 29 29 29 28 28
22 22 23 23 24 24 25 25 25 26 27 27 28 28 28 28 29 29 29 29 30 30 29 29 29 30 30 30 30 30 31 30 30 30 30 30 30 29 28 27 27 27 26 26
Wind_Direction
236 238 244 245 248 248 249 251 254 259 261 264 267 270 268 272 275 277 279 280 282 282 282 284 284 284 286 289 291 294 296 297 298 298 297 297 297 297 297 296 297 298 300 302
236 239 243 247 250 254 258 260 259 258 257 256 260 266 270 272 274 276 276 277 279 280 281 282 283 283 286 288 289 291 293 295 296 296 295 297 298 297 295 295 294 295 298 301
237 237 243 246 247 250 251 251 254 257 257 262 263 265 268 270 272 274 278 277 278 279 280 283 284 283 284 286 288 290 292 293 295 295 295 296 297 297 296 295 294 295 298 299
242 242 245 249 251 254 255 253 253 257 259 261 263 265 267 269 271 274 277 278 279 280 281 282 283 284 284 285 286 288 289 291 293 292 292 292 292 296 298 298 299 297 297 298
244 249 251 251 249 252 253 255 257 259 262 263 264 266 266 269 273 274 276 278 279 279 280 282 281 282 283 284 285 287 288 289 290 291 291 292 294 297 297 296 297 297 297 297
244 247 252 252 250 252 255 257 258 260 263 265 267 267 267 270 272 273 275 277 278 279 280 281 280 281 282 283 284 286 287 288 289 289 290 292 293 295 296 295 294 295 296 297
245 247 252 255 255 256 258 259 261 263 264 266 268 269 270 271 272 273 274 276 276 277 279 279 280 281 283 284 285 286 287 286 286 288 289 291 293 294 294 294 294 293 295 296
245 245 249 252 253 256 258 262 264 265 266 266 268 270 271 271 271 272 273 275 275 277 278 278 279 281 283 283 284 285 285 286 287 287 288 289 290 292 293 293 293 292 293 294
244 248 251 252 255 259 262 263 263 266 266 267 269 270 271 271 271 272 274 275 274 275 276 276 278 280 281 282 283 283 283 284 284 285 286 287 290 291 291 291 292 293 292 291
248 249 252 254 257 259 261 264 267 267 267 268 268 270 271 271 272 273 273 274 274 274 275 275 277 279 280 281 282 283 283 283 283 283 285 286 288 289 289 289 289 289 289 290
251 252 254 256 258 260 262 264 265 267 266 267 268 270 270 271 272 272 273 273 273 273 274 276 277 279 280 281 282 283 282 281 282 283 283 284 286 287 287 286 286 287 287 288
255 256 255 257 260 261 262 264 266 267 266 267 269 270 270 271 272 273 273 273 274 274 275 276 277 278 279 281 283 284 283 284 284 283 284 286 287 286 285 285 285 285 286 286
254 256 259 261 262 263 265 265 266 266 267 268 270 270 270 270 272 273 273 274 274 275 277 278 278 279 280 282 282 282 283 283 283 284 285 286 286 287 285 285 286 287 286 285
257 258 261 264 265 266 267 267 266 267 268 268 269 270 269 270 271 272 273 275 276 277 277 278 279 281 281 283 284 285 286 285 284 285 285 286 288 289 286 286 286 287 286 286
259 261 262 264 265 266 267 268 268 268 268 268 268 269 269 270 271 272 274 274 276 277 277 277 279 280 281 283 284 285 285 285 285 285 286 287 288 288 287 286 286 285 285 286
259 261 263 264 265 267 269 269 270 269 268 267 267 267 268 269 270 272 273 274 274 275 277 278 279 279 280 281 283 284 285 285 286 286 287 287 287 287 286 285 284 284 285 286
263 264 265 266 267 268 269 270 270 270 270 270 270 269 268 268 270 272 274 275 276 276 278 280 280 281 282 283 283 284 285 285 286 286 286 287 287 288 287 285 284 284 285 285
264 265 266 267 267 268 269 270 269 270 270 272 272 272 271 270 271 273 274 276 276 276 277 279 279 280 283 284 284 285 285 285 286 287 287 287 287 287 286 286 285 285 284 283
267 267 267 268 269 269 270 271 271 272 272 272 273 273 273 273 273 274 276 277 276 277 278 279 280 281 283 284 285 285 286 286 286 286 287 286 286 286 286 285 285 284 283 282
267 268 269 269 269 270 271 272 273 273 273 273 273 274 274 275 276 276 276 276 277 278 279 279 281 282 284 286 286 286 287 287 287 287 287 287 286 286 286 285 285 283 282 281
267 268 269 271 273 273 273 274 274 274 275 275 275 275 275 276 277 278 278 277 278 279 279 280 281 283 284 285 286 287 287 288 288 288 287 287 286 286 286 285 285 282 280 280
269 269 270 272 274 274 275 276 277 276 276 277 277 277 277 278 279 279 280 281 280 279 279 281 282 284 285 285 286 286 287 287 287 287 287 287 286 285 285 285 284 282 281 281
271 272 272 273 275 276 277 278 278 278 278 278 278 278 278 279 280 281 281 281 281 281 280 280 282 284 285 286 286 286 287 288 288 288 288 288 288 287 286 285 284 283 282 281
272 273 274 276 277 278 279 279 280 279 279 280 280 280 281 282 281 281 281 281 280 281 282 283 283 284 285 287 287 287 288 289 289 289 289 289 289 289 287 285 285 284 282 282
273 274 277 278 280 281 282 283 283 283 282 281 281 281 282 282 282 281 281 281 280 281 282 284 285 285 285 286 287 287 288 288 289 289 291 291 290 289 287 285 285 284 283 282
273 275 277 279 282 284 285 286 287 286 285 283 282 282 282 282 283 284 284 282 283 284 284 285 285 286 287 287 287 287 287 288 288 290 292 292 291 289 287 286 286 285 283 281
274 276 278 281 283 286 288 290 290 289 287 285 283 284 284 284 284 285 286 285 285 286 286 286 286 286 286 286 286 286 287 288 288 289 289 290 289 287 285 285 285 283 281 279
Height
5868 5870 5872 5873 5874 5876 5877 5877 5878 5878 5878 5877 5875 5874 5874 5875 5875 5875 5874 5874 5873 5873 5872 5871 5871 5870 5869 5868 5867 5866 5864 5862 5861 5859 5856 5854 5852 5849 5847 5845 5843 5842 5840 5838
5862 5864 5867 5868 5869 5870 5871 5872 5872 5871 5871 5870 5870 5869 5869 5869 5868 5867 5868 5867 5867 5867 5867 5866 5865 5864 5863 5862 5861 5859 5858 5857 5855 5853 5850 5848 5845 5843 5841 5839 5837 5835 5834 5832
5856 5859 5860 5862 5864 5864 5865 5865 5865 5864 5864 5863 5863 5862 5862 5863 5863 5862 5862 5861 5861 5861 5860 5860 5859 5858 5857 5856 5855 5853 5852 5850 5848 5846 5844 5842 5839 5837 5835 5833 5831 5829 5828 5826
5850 5853 5854 5858 5857 5857 5857 5856 5857 5857 5857 5857 5855 5855 5855 5855 5856 5856 5856 5855 5855 5855 5854 5854 5853 5852 5851 5850 5848 5847 5845 5844 5842 5840 5837 5835 5833 5831 5829 5827 5825 5823 5821 5820
5843 5845 5847 5849 5849 5849 5849 5849 5850 5849 5849 5850 5849 5848 5848 5849 5849 5849 5849 5848 5848 5848 5847 5847 5846 5845 5844 5843 5841 5840 5839 5837 5835 5833 5831 5829 5826 5824 5822 5820 5818 5817 5815 5813
5836 5838 5841 5840 5840 5841 5843 5842 5841 5842 5842 5841 5841 5841 5841 5841 5841 5842 5841 5841 5841 5840 5840 5839 5839 5838 5837 5836 5834 5833 5831 5829 5828 5826 5824 5822 5819 5818 5816 5814 5812 5810 5808 5806
5828 5830 5831 5832 5832 5834 5835 5833 5833 5834 5834 5834 5833 5833 5833 5833 5833 5833 5833 5833 5833 5832 5832 5831 5831 5830 5829 5828 5826 5825 5823 5821 5819 5817 5816 5814 5812 5810 5808 5806 5805 5803 5801 5798
5821 5823 5824 5824 5824 5825 5825 5825 5826 5826 5826 5826 5825 5825 5824 5824 5824 5824 5825 5825 5825 5824 5824 5823 5822 5821 5820 5819 5818 5816 5814 5812 5811 5809 5807 5806 5804 5802 5800 5798 5796 5795 5793 5791
5812 5814 5814 5815 5816 5816 5816 5817 5817 5818 5817 5817 5817 5816 5816 5815 5816 5816 5817 5817 5816 5816 5815 5815 5814 5813 5812 5810 5809 5807 5805 5804 5802 5800 5798 5797 5795 5793 5791 5790 5788 5786 5784 5783
5803 5804 5806 5806 5807 5808 5809 5808 5809 5808 5809 5809 5809 5808 5808 5808 5808 5808 5808 5808 5807 5807 5806 5806 5805 5804 5802 5801 5799 5797 5796 5794 5793 5791 5789 5787 5786 5784 5782 5780 5779 5777 5775 5774
5794 5796 5797 5798 5799 5799 5800 5800 5800 5799 5800 5800 5800 5800 5800 5800 5800 5799 5799 5799 5798 5798 5798 5797 5796 5794 5793 5791 5789 5788 5786 5784 5783 5781 5779 5778 5776 5774 5773 5771 5769 5767 5765 5764
5787 5788 5789 5790 5790 5790 5791 5791 5791 5791 5792 5792 5792 5792 5792 5791 5791 5791 5790 5790 5789 5789 5788 5787 5786 5785 5783 5782 5780 5778 5777 5775 5773 5771 5770 5768 5766 5765 5762 5761 5758 5757 5755 5754
5778 5778 5779 5780 5780 5781 5782 5782 5782 5782 5782 5783 5782 5782 5782 5782 5782 5781 5781 5780 5780 5779 5778 5777 5776 5775 5774 5772 5771 5769 5767 5765 5763 5761 5760 5758 5756 5754 5752 5750 5748 5747 5746 5744
5769 5770 5771 5772 5772 5772 5772 5773 5773 5773 5773 5773 5773 5773 5773 5773 5772 5772 5771 5771 5770 5769 5768 5768 5767 5766 5764 5763 5761 5759 5757 5755 5753 5752 5750 5748 5746 5744 5742 5740 5740 5738 5736 5734
5761 5762 5762 5763 5763 5763 5763 5763 5764 5764 5763 5763 5763 5763 5763 5763 5763 5762 5762 5761 5760 5759 5759 5758 5757 5756 5754 5753 5751 5749 5748 5746 5744 5742 5740 5738 5736 5734 5732 5731 5730 5728 5726 5725
5753 5753 5754 5754 5755 5755 5755 5755 5755 5754 5754 5754 5754 5754 5753 5753 5753 5753 5752 5751 5751 5750 5749 5748 5747 5745 5744 5743 5741 5739 5738 5736 5734 5732 5730 5727 5725 5724 5722 5721 5719 5717 5716 5714
5744 5745 5745 5745 5746 5746 5746 5745 5745 5745 5744 5744 5744 5744 5743 5743 5743 5742 5742 5741 5740 5740 5739 5738 5737 5735 5734 5732 5731 5729 5727 5725 5723 5721 5719 5717 5715 5713 5711 5710 5708 5707 5706 5704
5736 5736 5736 5737 5737 5737 5737 5736 5736 5736 5736 5735 5735 5734 5734 5733 5733 5732 5731 5731 5730 5729 5729 5727 5726 5725 5723 5721 5720 5718 5716 5714 5712 5710 5709 5707 5705 5703 5701 5699 5698 5696 5695 5694
5727 5728 5728 5728 5728 5728 5728 5728 5728 5727 5727 5726 5725 5725 5724 5723 5723 5722 5722 5721 5720 5719 5719 5717 5716 5714 5713 5711 5709 5707 5705 5703 5701 5700 5698 5696 5694 5692 5690 5689 5687 5686 5685 5684
5720 5720 5720 5720 5720 5720 5720 5719 5719 5718 5718 5717 5716 5716 5715 5714 5713 5713 5712 5711 5710 5709 5708 5707 5706 5704 5703 5701 5699 5697 5695 5693 5691 5689 5687 5685 5684 5682 5680 5679 5677 5675 5674 5673
5712 5712 5712 5712 5712 5711 5711 5711 5710 5709 5709 5708 5707 5706 5706 5705 5704 5703 5702 5702 5701 5699 5698 5697 5696 5694 5692 5690 5688 5686 5684 5682 5680 5679 5677 5675 5673 5672 5670 5668 5666 5665 5664 5663
5704 5704 5704 5704 5704 5703 5703 5702 5701 5700 5700 5699 5698 5697 5696 5695 5694 5693 5693 5692 5691 5689 5688 5687 5685 5684 5682 5680 5678 5676 5674 5672 5670 5668 5666 5664 5663 5661 5659 5657 5656 5655 5653 5652
5697 5697 5697 5696 5696 5695 5694 5693 5692 5691 5690 5689 5688 5688 5687 5686 5685 5683 5683 5682 5680 5679 5678 5677 5675 5674 5672 5670 5668 5666 5664 5662 5660 5658 5656 5654 5652 5650 5648 5647 5646 5644 5643 5642
5690 5690 5689 5689 5688 5687 5686 5685 5684 5682 5681 5680 5679 5678 5677 5676 5675 5674 5673 5672 5670 5669 5668 5667 5666 5664 5662 5660 5658 5656 5654 5652 5650 5648 5646 5644 5642 5640 5638 5637 5636 5634 5633 5632
5683 5683 5682 5681 5680 5679 5678 5676 5675 5673 5672 5671 5670 5669 5668 5667 5665 5664 5663 5662 5660 5659 5658 5657 5656 5654 5652 5650 5648 5646 5644 5642 5640 5638 5636 5634 5632 5630 5628 5627 5625 5624 5623 5621
5676 5676 5675 5674 5673 5672 5670 5668 5667 5665 5664 5662 5661 5660 5658 5657 5656 5655 5653 5652 5650 5649 5648 5647 5645 5644 5642 5639 5637 5636 5634 5631 5630 5628 5626 5624 5622 5620 5618 5617 5616 5614 5613 5612
5670 5669 5668 5667 5666 5664 5663 5661 5659 5657 5655 5654 5652 5651 5649 5648 5647 5645 5644 5642 5641 5640 5638 5637 5635 5633 5631 5629 5627 5625 5623 5621 5620 5618 5616 5614 5613 5611 5609 5608 5606 5605 5604 5603